Theta_e
285 285 285 285 285 285 285 285 284 283 283 283 282 282 281 281 279 275 273 275 275 276 277 276 277 279 279 280 280 281 280 282 284 282 282 280 279 284 287 288 290 290 290 290 290 290 290 290 290 290 290 291 291 291 292 292 292 293 293 293 294 295 295 295 295 295 296 296 296 296 296 297 297 298
285 285 285 285 285 285 285 285 285 283 283 281 281 281 282 282 280 279 276 276 277 276 277 278 276 278 279 280 280 280 280 284 284 281 281 280 279 283 286 287 288 289 289 289 289 289 289 290 290 290 290 291 291 292 292 293 293 293 294 294 294 294 294 295 295 295 295 296 296 296 296 297 297 298
285 284 284 285 285 285 285 285 285 285 283 281 281 281 281 281 282 281 280 278 278 278 276 277 278 278 278 280 280 280 280 283 283 280 279 279 281 283 283 285 287 288 289 289 289 289 289 289 289 289 290 290 291 291 292 292 292 292 292 293 293 293 293 293 294 294 294 294 295 295 296 296 296 297
284 284 284 284 284 285 284 284 284 284 284 283 281 281 281 281 281 281 281 279 279 278 278 277 277 278 278 279 279 279 280 282 284 279 279 279 282 281 279 283 285 286 287 288 288 288 288 288 288 288 289 289 290 291 291 291 291 291 291 292 292 292 293 293 293 293 294 294 295 296 296 296 297 297
283 283 283 284 284 285 284 284 284 284 284 283 282 281 281 280 281 281 280 279 279 277 277 278 277 278 278 278 279 278 279 279 281 280 278 279 279 279 278 279 283 284 285 286 286 287 287 287 287 288 289 289 290 290 290 290 290 290 290 290 291 291 292 293 293 293 293 294 295 295 296 296 297 297
284 283 282 283 283 284 283 283 283 283 283 283 282 281 280 280 280 281 280 279 279 278 275 275 277 276 278 276 278 277 277 278 279 278 278 279 278 278 277 277 278 283 284 284 285 285 286 287 287 287 287 287 288 289 288 288 289 289 289 289 289 290 291 291 291 291 292 293 294 295 295 296 297 297
284 283 283 283 283 283 282 282 283 283 282 283 282 281 281 280 280 280 280 280 278 278 274 275 274 274 276 275 276 277 278 278 278 277 277 277 278 278 276 276 276 281 282 284 284 285 285 286 286 286 286 286 287 288 288 287 287 288 288 288 288 288 289 289 289 291 291 291 293 294 294 295 296 296
284 283 283 283 283 283 282 282 282 282 282 282 281 281 281 280 280 280 280 280 279 279 275 275 273 275 274 275 277 277 278 277 277 277 277 277 277 277 277 277 276 279 282 283 284 284 284 285 285 285 286 286 286 286 286 286 286 286 286 286 286 287 287 287 288 289 289 290 291 292 293 294 295 295
283 283 283 283 283 283 282 282 281 281 281 281 280 280 280 280 280 280 279 279 280 279 277 275 275 275 274 275 275 276 275 276 276 277 276 276 276 277 277 277 277 280 282 282 283 283 283 283 284 284 285 285 285 285 285 285 285 285 285 285 285 286 286 286 287 287 287 287 288 289 291 291 291 291
283 282 283 283 284 283 282 282 282 281 281 281 280 279 279 279 279 278 278 279 279 278 278 277 274 274 273 273 274 275 275 275 274 275 275 276 276 276 275 275 276 277 277 277 278 281 281 282 283 283 284 284 284 284 284 284 284 284 284 284 285 285 285 286 286 286 286 287 287 287 288 288 288 288
283 283 283 283 283 283 283 282 282 281 281 281 280 280 279 279 278 278 278 278 277 277 277 277 275 274 274 274 272 274 275 275 275 274 273 273 275 275 275 274 275 276 276 278 280 279 278 279 279 280 282 282 283 283 283 283 283 283 283 284 284 284 284 285 285 285 285 285 286 286 286 286 287 288
283 283 283 284 284 284 283 283 282 281 280 280 280 280 279 279 278 277 277 277 277 276 276 276 275 274 273 274 274 275 274 273 273 274 274 272 273 273 275 275 274 275 275 274 275 279 279 279 279 280 280 280 281 281 282 282 282 282 283 283 284 284 284 284 284 285 285 285 285 285 286 286 286 287
283 283 284 284 284 284 284 284 283 283 282 280 279 279 279 278 277 277 277 276 276 276 276 275 276 274 274 274 273 273 272 271 271 273 274 273 274 274 274 274 275 275 273 273 273 273 274 274 273 274 274 275 278 278 280 279 280 280 281 282 282 283 283 283 284 284 284 284 285 285 285 285 286 286
283 283 283 283 284 284 284 284 284 284 283 283 281 280 279 278 277 277 276 275 275 275 274 274 275 273 273 273 273 272 273 273 273 273 273 272 273 274 273 273 273 274 273 272 271 272 274 273 272 272 272 273 275 274 275 275 276 278 280 281 281 282 282 283 283 283 284 284 284 285 285 285 285 286
282 283 283 283 283 284 284 284 284 284 284 283 283 283 282 281 278 276 275 275 275 274 274 275 274 274 273 274 274 273 273 273 272 272 273 273 273 271 270 268 270 274 274 273 271 270 272 273 271 272 272 273 273 274 274 278 279 279 280 281 282 282 283 283 283 284 284 284 285 285 285 285 285 285
282 282 282 283 283 283 283 283 283 284 284 284 283 283 282 282 282 281 278 276 275 274 274 274 274 274 274 274 274 273 273 272 272 273 273 273 272 271 270 270 269 273 275 272 270 269 272 272 271 271 272 272 273 273 276 278 279 280 280 281 282 282 282 283 283 283 284 284 284 284 285 285 285 285
282 282 282 282 283 283 283 283 283 283 283 283 284 283 283 282 282 281 281 281 278 276 275 274 274 274 274 273 274 274 274 274 272 273 272 273 273 272 271 270 271 272 273 272 269 267 270 271 270 270 271 272 272 273 276 278 279 280 280 280 281 281 282 282 282 283 283 283 284 284 284 284 284 284
282 282 282 282 282 282 282 283 282 282 282 282 282 282 281 280 281 281 281 281 280 279 276 275 274 275 275 274 275 276 276 274 272 272 271 273 272 271 270 272 271 272 274 271 269 265 268 269 269 269 270 271 272 272 274 277 278 279 279 280 281 281 281 282 282 282 283 283 283 284 284 284 284 284
283 283 283 283 282 282 282 282 282 281 281 280 280 281 280 280 279 280 280 279 279 278 277 276 276 276 276 275 276 276 276 275 275 274 273 273 272 272 270 269 269 270 273 272 269 262 267 269 268 268 269 270 270 271 274 276 277 278 279 279 280 280 281 281 282 282 282 283 283 283 283 284 284 284
283 283 283 283 283 283 282 283 284 283 281 280 279 279 279 279 279 279 280 282 281 279 278 277 277 277 277 278 276 276 276 275 274 273 272 271 270 268 267 266 267 267 271 271 269 264 265 269 268 268 268 268 268 270 270 274 276 277 278 278 279 280 280 280 281 281 281 282 282 283 283 283 283 283
283 284 284 284 283 283 282 283 284 284 283 280 279 278 278 277 277 277 279 282 283 282 281 280 280 280 280 280 280 280 279 275 273 271 269 268 269 267 265 265 266 266 268 270 270 268 265 267 267 266 267 267 267 268 269 270 273 275 276 277 278 278 279 280 280 280 281 281 281 281 282 282 281 281
283 283 284 284 283 282 282 283 284 284 283 279 278 278 277 276 275 276 277 279 280 282 281 281 280 280 280 280 280 280 279 278 275 271 268 269 269 266 266 265 265 266 266 267 270 266 263 265 264 263 263 265 265 267 268 269 270 273 274 276 277 277 277 278 278 278 278 279 280 280 280 280 280 278
282 283 283 283 283 282 282 284 284 284 283 279 278 278 276 275 274 275 276 276 277 277 277 277 277 277 279 278 277 277 278 277 275 272 271 270 268 266 266 265 263 262 264 266 268 263 260 263 263 263 260 258 261 264 265 266 268 268 268 269 269 273 274 275 276 276 277 277 278 279 279 279 278 276
280 281 281 283 284 284 284 284 284 284 284 279 278 277 275 274 273 275 276 276 276 276 275 274 271 267 268 270 272 274 275 273 271 270 271 270 269 267 266 265 264 261 261 263 266 264 258 261 258 262 262 259 257 258 262 262 263 265 267 267 267 270 272 272 272 274 274 275 276 277 278 278 277 275
279 278 278 278 282 284 284 283 284 284 284 281 278 277 275 275 276 277 275 276 277 274 270 268 267 267 267 267 267 267 266 265 267 266 267 269 269 267 265 264 263 264 263 262 269 261 258 257 256 258 257 257 257 258 258 260 262 263 265 266 266 267 267 268 269 269 271 273 274 275 276 276 277 275
278 277 276 276 281 284 283 283 283 284 284 281 277 277 279 279 279 275 275 275 272 269 268 267 266 266 266 265 264 264 263 263 263 264 264 264 264 265 266 266 264 262 262 263 270 260 259 257 259 257 255 255 256 258 258 259 260 262 264 265 266 267 267 267 267 267 268 268 269 271 272 275 277 278
276 275 275 276 281 282 283 283 283 283 283 280 277 280 280 279 278 276 273 271 269 269 268 267 266 266 266 265 264 263 263 262 262 261 262 262 262 262 261 262 262 262 260 261 260 258 256 254 256 256 256 255 255 256 257 256 256 257 260 263 264 265 266 266 266 266 267 268 268 272 274 275 275 276
275 274 273 277 282 282 282 282 282 282 281 277 279 280 279 278 276 273 271 270 269 268 267 267 266 266 266 265 265 264 263 262 261 261 260 260 260 259 259 260 260 261 260 259 257 257 256 256 257 257 257 256 255 255 255 257 259 258 259 261 263 264 265 266 266 266 267 268 268 269 268 268 270 270
275 276 278 280 282 282 282 282 282 281 278 279 279 279 278 275 272 271 270 269 268 267 267 267 266 266 265 266 265 264 262 261 260 259 258 258 258 257 257 257 257 258 258 258 257 256 257 257 257 256 254 256 255 255 255 256 257 258 259 260 260 261 263 265 266 265 266 267 267 268 268 268 269 270
278 279 280 281 281 281 280 279 277 275 276 279 279 277 274 271 271 270 269 268 268 267 267 266 265 264 263 261 261 261 261 260 259 259 258 257 257 256 256 256 257 256 257 258 258 257 257 257 257 256 255 255 256 256 257 257 257 258 260 259 260 262 263 263 263 266 266 266 267 267 269 269 270 270
278 279 279 279 279 279 278 277 277 277 277 274 272 271 271 270 270 270 269 269 268 267 266 265 264 262 261 260 259 259 260 259 260 260 260 259 258 258 257 256 257 258 260 257 258 258 257 257 257 256 255 255 256 257 258 257 257 258 259 260 260 258 261 262 263 264 265 266 267 268 268 268 269 270
276 275 276 275 274 274 273 272 270 270 270 270 269 268 268 268 268 270 271 269 267 266 265 263 262 260 260 260 260 260 260 261 260 260 259 259 258 259 258 257 257 257 256 256 257 258 260 258 257 257 257 257 257 258 257 257 257 258 259 260 261 261 262 261 262 263 266 266 266 265 266 266 266 267
272 273 272 271 271 270 269 268 268 267 266 265 266 265 266 266 266 266 265 265 264 263 262 261 261 260 260 260 260 260 260 260 260 259 259 258 258 257 257 257 257 257 256 256 257 256 256 258 260 259 258 258 259 259 258 257 259 259 259 260 260 260 261 262 263 263 265 264 263 263 263 264 265 266
270 269 269 268 268 268 267 266 266 265 265 264 264 264 266 264 264 264 263 263 262 262 262 261 260 260 260 260 260 260 260 259 258 259 262 257 258 257 257 256 257 257 257 257 256 256 257 256 256 258 259 261 261 260 260 258 259 260 260 259 259 259 261 262 263 263 263 263 262 261 262 263 264 266
269 268 267 267 267 267 266 266 265 265 264 263 263 262 263 263 263 262 262 261 261 261 261 261 261 261 260 260 260 260 260 259 259 258 258 257 257 257 256 256 256 256 256 256 257 256 256 257 256 256 255 255 257 258 264 263 259 260 260 259 259 260 261 263 263 262 262 262 262 261 261 262 263 265
268 268 267 267 266 266 265 265 265 264 264 263 263 262 262 261 261 261 260 260 261 260 260 260 260 260 260 260 260 260 259 259 258 258 258 257 257 256 256 256 257 257 255 255 256 255 256 256 255 254 255 255 254 255 255 265 266 260 259 260 261 261 261 261 262 261 261 261 262 261 260 261 262 264
268 268 268 267 266 266 265 265 265 264 264 263 263 262 262 260 260 260 260 261 260 259 259 259 259 259 259 259 258 258 258 258 259 258 257 257 256 256 256 256 256 256 255 255 255 255 256 255 255 253 253 253 253 254 256 256 263 266 261 260 260 260 260 260 260 260 260 261 261 261 261 261 262 263
268 268 267 267 266 266 266 265 264 264 263 262 262 262 261 259 258 258 258 259 258 258 259 258 257 257 258 258 259 258 257 257 257 257 257 256 256 255 255 254 253 253 254 254 255 255 255 254 254 253 252 253 254 254 255 256 255 260 265 262 260 260 260 259 259 259 260 262 261 262 262 261 262 263
268 268 267 266 266 266 266 265 264 263 263 263 262 261 260 258 257 257 257 257 257 258 257 258 257 258 258 258 258 258 258 257 256 256 255 255 255 254 253 252 253 252 253 254 253 254 253 253 254 253 252 252 253 255 255 255 256 258 262 266 263 261 260 259 259 260 260 260 261 262 262 263 265 268
268 268 267 267 266 266 265 265 264 264 263 263 262 261 259 258 257 257 257 257 257 257 258 257 258 258 256 256 257 256 256 256 256 256 256 255 254 253 253 252 252 252 252 253 254 254 253 254 254 253 252 254 257 258 257 258 258 258 258 261 266 264 262 262 260 260 260 261 261 260 259 260 260 263
267 267 267 266 266 266 265 265 264 263 263 262 261 261 260 258 258 257 257 257 257 258 257 257 257 255 257 256 255 257 256 255 254 254 254 254 254 254 254 255 252 252 252 254 254 255 256 256 257 261 258 258 257 256 255 254 255 257 257 259 264 267 266 265 263 261 260 261 260 259 258 258 259 261
266 267 266 265 265 264 265 264 263 263 262 262 261 260 259 258 257 260 259 259 257 256 256 256 255 255 255 255 254 254 255 256 255 255 254 253 253 253 254 254 253 253 252 254 255 256 257 257 258 257 256 255 255 254 254 254 255 256 257 258 259 264 266 266 267 266 263 261 260 258 259 259 261 261
265 265 265 265 265 265 265 264 263 262 261 261 260 259 258 258 258 259 256 256 256 256 256 255 255 256 255 255 254 255 255 255 254 255 254 253 253 253 253 253 254 254 253 255 255 255 256 256 254 255 254 253 254 254 254 255 256 256 256 257 258 259 260 264 266 266 266 266 265 263 261 260 260 258
265 265 264 264 265 265 264 263 263 262 261 260 260 259 259 258 258 258 257 256 256 256 256 256 256 256 256 256 255 254 255 254 254 254 254 254 254 254 253 253 253 252 252 252 253 253 254 254 254 254 253 254 254 253 254 255 255 256 256 256 257 257 257 258 259 262 263 263 264 265 266 267 267 267
265 265 264 264 263 263 262 262 262 261 261 260 259 259 258 258 257 257 256 256 256 256 257 257 257 257 256 256 256 255 254 257 255 252 253 253 253 253 252 252 252 251 252 252 251 253 252 252 253 253 253 254 254 254 255 256 255 256 256 255 255 256 256 257 256 255 255 256 261 265 266 267 267 267
Wind_Speed
10 9 11 10 9 9 9 7 6 8 8 8 8 9 10 9 9 7 7 11 9 8 10 9 10 11 9 9 8 9 8 9 12 10 9 9 8 14 20 21 21 21 21 20 21 20 20 19 19 18 18 18 19 19 19 20 20 21 21 21 22 22 22 22 23 22 23 23 23 24 24 24 24 24
10 11 10 9 9 9 9 9 8 6 7 7 8 8 9 9 11 9 10 10 9 7 9 8 8 10 10 9 8 8 8 12 13 8 9 9 8 15 20 21 21 21 21 21 20 21 20 20 20 19 19 20 20 20 21 21 22 22 22 22 22 22 23 23 23 23 23 24 24 25 25 25 25 25
11 12 13 11 10 10 10 9 9 8 6 6 6 6 6 8 10 10 7 8 5 10 10 9 7 11 12 9 9 8 8 10 11 8 8 9 11 16 14 20 20 21 21 21 21 20 20 20 20 20 20 20 21 21 21 21 22 22 23 23 23 23 23 23 24 24 24 25 25 25 25 25 25 25
10 11 13 13 12 11 10 10 9 9 8 7 7 7 7 7 7 7 7 9 8 7 9 10 9 12 12 11 11 10 7 9 13 8 8 9 13 10 7 16 21 20 21 20 20 20 20 20 20 20 20 20 21 21 21 22 22 22 23 23 23 23 23 24 24 24 25 25 26 26 26 26 26 26
9 10 12 12 13 12 11 10 10 10 10 9 8 7 7 8 7 9 8 10 10 1 2 8 9 10 12 10 12 11 9 9 8 9 8 9 9 8 6 7 16 20 20 19 19 19 20 20 20 20 20 21 21 21 21 22 22 21 21 22 23 23 24 25 25 25 26 26 26 27 27 27 27 28
9 9 10 11 11 11 12 11 11 10 10 9 9 8 8 8 9 8 8 9 9 8 2 3 4 9 12 11 10 12 12 11 9 10 9 8 9 8 6 6 6 16 18 18 19 20 20 20 20 21 20 20 20 20 20 20 20 20 21 21 22 23 24 25 25 25 26 26 27 27 27 28 27 28
10 10 10 11 11 9 10 11 11 10 11 10 11 11 9 10 10 8 9 8 9 9 6 5 6 8 9 10 11 11 9 10 10 11 10 9 7 6 7 6 5 13 19 20 21 21 21 21 21 21 20 19 20 20 19 20 20 21 21 22 23 23 24 24 25 25 25 26 27 27 27 28 29 29
10 10 10 11 10 9 9 10 10 9 9 10 10 11 10 9 10 9 8 9 8 7 6 6 8 7 8 6 7 9 8 10 10 10 8 7 8 7 7 8 7 11 20 20 21 21 21 21 21 20 20 19 19 19 19 19 20 21 22 22 22 23 23 24 24 25 26 26 27 28 28 29 29 30
9 10 10 10 9 10 11 10 10 10 11 10 9 9 9 9 9 7 8 8 8 7 8 7 5 6 5 6 7 9 9 8 7 7 9 9 9 9 8 7 7 11 20 20 20 19 19 19 20 20 19 19 19 19 20 20 20 20 21 21 21 22 22 23 24 25 25 26 27 27 28 29 29 30
9 10 9 9 9 9 11 12 11 11 12 10 9 9 9 8 7 7 8 8 9 9 8 8 7 7 8 7 7 9 10 10 9 8 8 7 8 8 7 7 6 6 7 7 9 13 15 17 20 19 19 19 19 19 19 19 19 20 20 21 21 22 22 23 23 24 25 26 26 26 27 28 28 29
9 9 9 9 9 10 10 11 11 11 11 10 11 11 10 9 8 8 8 8 9 10 9 8 9 9 8 9 9 8 9 8 9 9 9 8 7 7 8 8 7 7 7 9 14 11 9 9 9 15 19 19 19 19 18 18 19 19 19 20 21 21 22 23 24 24 25 25 25 26 27 28 29 30
11 11 10 10 10 10 10 10 10 10 10 9 10 9 9 9 9 10 9 8 9 9 9 9 9 8 9 8 6 7 10 9 8 10 9 8 9 9 9 10 9 8 8 8 8 12 13 14 16 18 17 18 18 18 17 19 19 20 20 21 22 23 23 24 24 25 25 26 26 26 27 28 29 29
11 10 10 11 11 11 11 12 11 11 12 10 10 9 9 10 10 10 9 9 9 9 9 9 8 8 9 9 10 10 11 14 14 9 8 8 9 8 8 8 9 8 9 8 8 7 7 7 6 6 5 6 11 13 17 14 19 20 20 21 22 23 23 24 24 24 25 25 26 26 27 28 28 28
13 13 12 12 16 16 17 16 17 17 17 17 13 11 10 11 11 11 11 10 10 10 11 11 11 11 11 11 12 12 11 9 6 9 10 9 8 7 5 6 5 7 6 6 6 6 5 5 5 5 7 6 8 7 7 7 9 14 20 21 22 22 23 23 23 24 24 25 25 26 27 27 28 29
12 11 12 11 14 16 17 17 21 19 20 19 19 18 18 18 15 12 12 11 11 11 11 11 10 11 12 12 11 11 9 8 10 9 9 8 7 8 9 8 2 3 6 6 5 5 4 5 7 7 7 7 7 7 8 12 17 19 20 21 21 22 22 22 23 24 24 25 26 27 27 28 28 29
11 11 10 10 10 11 13 12 13 16 19 20 21 22 19 20 22 19 16 13 11 12 11 11 12 12 13 12 11 10 10 10 9 8 8 9 10 9 9 8 7 3 7 7 6 6 4 4 6 6 7 7 6 7 10 16 19 20 20 21 21 21 22 23 23 24 24 25 25 26 27 27 28 29
12 11 12 12 11 11 17 15 13 12 13 20 24 22 22 23 23 22 23 21 16 14 12 12 12 13 12 11 11 12 11 9 10 9 9 9 8 8 8 6 6 1 5 5 4 5 4 4 4 6 6 6 6 7 12 18 18 19 20 20 21 21 22 22 23 23 23 24 25 26 26 27 27 28
14 14 13 12 11 11 12 12 13 14 14 13 14 15 14 14 20 23 25 24 22 17 14 13 14 13 10 12 11 9 10 12 12 11 10 8 7 8 7 5 5 2 3 5 2 2 4 3 5 7 7 7 7 7 12 18 18 19 19 20 21 21 22 22 22 23 23 23 24 26 26 27 27 28
14 14 14 14 13 12 12 12 15 14 13 12 11 13 14 14 13 14 15 15 14 13 12 12 13 10 11 10 8 9 10 12 10 9 9 8 7 4 4 5 2 0 2 3 3 5 3 4 6 8 7 6 7 6 9 16 18 19 19 20 20 21 21 22 22 23 23 24 24 25 25 26 27 28
13 13 13 12 14 14 13 15 22 19 13 12 12 13 13 13 12 13 14 17 15 12 11 10 10 9 9 11 8 10 9 7 7 8 7 6 5 5 4 5 2 3 2 4 4 3 4 5 6 7 5 4 6 6 7 13 18 18 18 19 19 20 21 21 22 22 23 24 25 25 25 26 26 27
13 12 12 12 13 13 11 14 20 21 18 11 13 13 13 12 11 11 10 21 23 20 18 15 15 15 17 18 17 18 17 12 10 9 8 6 6 6 5 3 2 7 3 3 7 5 5 6 6 6 4 5 6 7 8 7 11 16 17 18 18 19 20 21 21 22 23 24 25 25 25 25 25 28
11 13 18 16 12 11 11 16 20 21 17 13 13 12 12 13 12 9 8 8 13 21 21 20 19 18 19 19 20 21 20 20 15 12 10 8 6 6 5 5 5 5 3 6 6 5 6 2 1 3 4 4 4 7 7 6 6 10 12 14 16 17 19 21 22 23 23 24 24 24 25 25 24 17
7 8 12 19 17 14 15 20 23 26 20 12 12 13 11 12 12 10 11 11 10 10 9 10 12 12 16 14 12 13 22 20 13 9 9 8 7 6 5 5 2 3 5 5 4 3 3 2 3 2 4 4 5 4 2 2 1 2 3 6 9 18 21 22 21 22 22 22 22 23 24 23 21 13
9 8 7 13 20 22 20 21 26 25 25 13 11 10 11 11 12 10 12 12 11 10 9 7 6 7 7 7 6 8 10 9 7 7 7 8 8 7 6 6 7 5 4 1 3 7 2 2 2 1 4 3 5 5 5 4 3 4 6 8 8 13 17 18 16 19 20 20 22 23 23 23 21 12
8 8 8 6 12 17 17 18 21 22 25 18 11 11 11 12 11 13 11 13 15 9 9 10 9 7 6 7 7 7 7 6 6 5 5 6 7 7 7 7 6 8 6 2 4 4 3 2 2 0 2 3 4 4 4 3 4 4 7 8 10 9 7 8 7 10 13 21 22 23 23 22 22 17
8 8 8 7 10 16 17 19 21 22 22 22 10 10 13 14 20 13 10 9 8 9 10 9 8 8 7 7 6 6 5 5 5 4 4 4 3 4 6 8 8 7 8 5 5 4 2 1 6 4 3 2 5 3 5 6 6 8 8 8 7 8 8 9 9 10 9 9 10 12 15 21 21 23
7 6 7 7 12 17 18 18 19 20 23 18 11 18 18 19 23 15 8 9 10 10 10 10 9 8 8 7 6 5 5 4 4 4 4 3 3 2 1 1 2 5 1 0 3 4 3 3 3 6 6 3 4 4 6 6 5 2 3 5 7 8 8 9 10 9 9 10 10 18 20 21 22 25
6 7 6 9 19 19 19 19 19 18 18 11 20 20 21 23 19 10 9 9 10 10 9 9 9 8 7 6 6 6 5 6 5 5 4 4 3 3 2 3 3 2 3 4 3 1 2 3 4 4 6 6 7 7 8 4 7 6 8 4 6 9 8 8 9 9 9 9 10 9 9 10 10 11
7 8 12 15 17 16 16 16 16 12 19 20 20 21 22 18 9 10 9 10 10 10 10 9 8 8 7 6 5 5 7 7 6 5 4 3 2 1 0 2 3 4 3 4 4 5 6 6 9 5 4 6 7 7 4 9 5 6 6 9 8 4 6 8 9 9 9 9 10 10 10 10 11 10
12 13 14 17 16 15 12 8 6 8 10 19 20 22 20 10 9 8 9 9 10 9 8 8 9 7 6 6 6 7 7 7 6 5 5 4 2 2 1 1 5 4 6 6 6 6 6 8 9 7 6 6 7 8 8 7 10 8 6 8 12 11 9 8 4 6 9 10 11 12 11 10 12 12
8 10 9 9 10 9 13 15 14 12 12 11 12 10 8 8 8 8 8 9 9 9 8 7 7 7 6 6 7 7 6 6 4 5 6 5 5 4 3 3 3 5 5 6 7 7 8 9 8 6 7 5 5 9 9 6 10 11 9 7 7 9 7 6 8 8 9 11 11 12 12 11 12 11
7 8 10 12 9 11 11 9 9 9 8 9 9 8 7 7 6 9 10 7 6 6 7 7 8 7 7 7 6 6 5 5 5 5 6 5 6 5 5 2 2 3 4 2 4 6 7 8 8 7 9 8 7 7 4 7 10 11 11 9 9 9 8 10 9 8 9 10 12 12 12 11 12 10
9 8 8 8 9 9 10 10 9 8 8 8 8 9 8 7 7 6 6 8 7 8 9 9 9 8 6 6 6 6 6 6 6 5 5 3 5 3 3 4 4 1 3 5 2 3 6 7 8 9 9 8 10 10 8 9 9 8 9 10 7 9 7 8 8 10 8 9 12 13 15 12 9 11
8 7 8 7 8 8 9 9 8 8 8 9 8 6 7 7 7 6 6 6 7 7 8 8 8 8 8 7 7 6 7 5 5 5 6 4 4 4 5 5 6 5 4 4 3 4 3 3 3 5 6 8 8 10 10 9 12 10 8 8 8 10 8 7 7 7 8 8 12 16 16 17 11 8
7 8 8 7 7 7 8 8 8 8 8 8 8 7 6 5 7 6 6 6 5 6 7 7 7 8 8 8 7 8 7 7 6 6 3 5 5 5 6 6 6 4 4 4 4 3 1 3 3 5 4 3 4 6 13 13 9 11 8 7 6 7 9 6 8 9 9 11 8 13 17 17 17 7
6 6 7 7 7 7 7 7 6 7 7 7 8 8 7 6 5 7 6 5 6 7 7 8 7 8 7 7 7 7 7 6 7 6 5 5 6 6 5 6 4 5 4 4 4 4 1 3 3 4 6 6 6 8 4 8 10 7 7 10 7 7 8 9 10 9 10 11 9 10 14 18 20 16
7 5 6 7 6 7 7 7 7 6 7 7 7 7 8 7 5 5 5 6 6 6 7 7 7 7 7 7 5 6 6 7 7 7 6 6 6 6 5 4 5 4 2 4 3 3 1 2 3 3 4 6 6 8 10 2 9 8 4 8 10 6 9 10 11 11 9 9 11 8 12 15 19 20
6 6 6 6 6 6 6 6 7 7 6 6 6 6 5 5 5 6 6 6 6 6 6 6 6 6 7 6 7 6 6 6 5 6 6 6 6 6 7 7 4 2 3 4 3 3 3 4 5 4 3 5 7 9 11 3 2 5 6 7 10 11 8 10 10 11 12 8 10 12 10 14 18 17
5 6 6 6 6 6 6 6 6 7 6 7 6 7 7 6 5 6 6 6 5 6 6 6 6 6 7 7 6 7 7 6 6 7 7 7 7 6 4 3 2 2 1 4 3 5 3 4 5 5 4 4 6 8 7 10 11 7 12 19 14 12 9 7 10 11 11 13 12 11 12 13 20 29
5 5 5 6 6 6 6 6 5 6 7 6 6 6 7 7 6 6 6 6 5 5 6 6 6 6 6 7 6 6 5 7 8 7 7 7 6 4 4 3 3 2 1 4 4 5 4 5 4 5 4 6 7 7 8 9 11 9 9 13 19 13 11 9 11 11 13 11 12 14 16 13 13 12
5 5 5 5 6 6 7 6 6 6 6 6 6 6 6 7 7 6 6 6 5 6 6 6 6 5 6 6 6 8 7 7 6 6 5 6 5 4 5 4 2 3 3 5 5 5 6 5 4 6 6 6 6 5 5 6 10 8 6 6 8 16 21 17 13 11 12 13 12 13 14 15 15 14
5 5 5 5 6 5 5 6 6 6 5 6 6 6 6 6 6 7 7 6 6 6 6 6 6 6 6 6 6 6 7 7 7 6 5 6 4 4 5 5 5 4 5 6 6 6 5 3 5 4 4 4 5 4 7 7 11 11 9 8 7 11 18 22 22 20 15 12 12 13 13 12 9 13
6 5 5 4 5 5 5 6 6 6 6 6 6 6 7 6 6 7 6 7 7 6 7 6 6 6 6 6 6 6 6 6 6 6 6 6 6 6 5 6 6 6 5 6 5 5 6 5 4 4 4 3 3 3 8 9 9 10 11 9 10 8 9 15 20 23 24 24 20 14 11 11 12 15
5 5 5 5 5 5 5 6 6 6 6 6 6 6 7 7 7 7 7 7 8 7 7 7 7 7 6 6 6 5 5 5 4 5 6 6 5 6 4 4 4 4 4 5 5 5 5 5 4 3 4 5 4 4 8 8 10 9 9 10 10 10 12 9 9 14 18 20 17 15 21 21 20 23
4 5 5 5 5 5 5 5 6 6 6 6 6 6 6 6 7 7 7 7 7 7 7 7 7 6 6 6 6 6 6 5 5 4 6 5 5 5 4 4 4 4 5 4 4 6 4 4 4 3 4 5 4 5 8 8 10 10 9 9 12 11 10 9 10 12 12 15 20 23 21 23 24 26
Wind_Direction
228 227 227 230 234 236 236 234 224 218 210 207 200 200 203 201 202 184 196 207 201 193 181 181 203 191 186 186 185 182 184 182 183 194 183 183 190 206 210 215 217 216 215 216 217 219 222 224 226 229 234 239 243 245 247 249 252 254 256 258 261 263 263 264 264 264 265 267 267 266 266 267 273 276
223 224 225 222 231 231 232 235 235 229 220 209 204 203 202 198 205 202 205 217 188 186 192 191 184 187 189 180 182 184 186 184 181 181 176 183 186 200 210 215 217 216 214 215 217 219 223 226 229 233 237 241 244 247 249 251 253 255 256 258 260 261 262 263 264 264 265 265 264 265 265 267 267 266
224 220 221 219 224 224 228 229 234 239 232 221 213 210 197 199 202 204 207 226 198 176 187 200 187 177 184 178 179 183 185 185 178 171 174 183 186 197 210 213 216 217 215 214 216 219 224 228 232 236 240 243 246 248 251 253 256 259 260 261 262 262 263 264 264 265 265 265 265 265 266 266 265 265
224 224 223 219 217 217 218 220 223 228 231 227 223 218 214 214 213 208 216 223 231 181 183 186 182 178 176 175 180 182 178 187 176 166 172 181 185 201 204 215 214 217 217 216 218 222 226 230 233 236 239 243 246 249 252 254 256 258 258 259 260 261 262 262 263 264 265 264 264 264 264 263 263 264
221 221 226 225 223 218 215 213 215 217 218 220 222 219 218 219 214 213 216 225 234 137 195 169 175 179 166 181 183 176 175 180 174 162 173 177 189 197 197 205 213 213 217 219 223 226 230 232 234 237 240 243 246 249 251 254 257 259 261 262 262 263 263 264 264 264 264 264 264 265 265 264 264 264
221 221 224 226 227 221 218 212 214 213 213 211 213 214 214 216 215 207 206 217 228 208 101 123 163 170 178 177 183 178 174 178 170 171 176 183 188 191 182 191 211 217 218 224 229 231 233 235 237 239 241 243 247 249 253 256 257 260 261 262 264 264 263 264 264 264 265 266 266 265 264 264 264 263
223 224 224 226 224 220 218 216 215 211 211 209 210 212 209 213 214 211 208 208 218 206 181 168 166 177 184 182 180 182 179 173 173 175 181 182 184 182 185 192 201 219 226 229 231 232 234 237 239 241 242 243 245 248 251 251 254 257 259 260 261 261 261 263 263 263 264 264 264 264 264 265 265 265
226 220 224 228 225 218 219 218 215 211 208 207 209 211 208 208 211 208 205 205 208 207 164 184 183 184 171 188 180 173 171 170 178 183 180 181 190 188 191 195 200 216 225 229 230 231 234 237 240 242 243 244 245 248 249 253 255 257 258 259 260 260 261 261 262 263 264 265 265 266 265 265 265 265
241 234 225 225 224 218 220 218 215 211 208 206 205 206 207 206 205 201 197 199 197 195 185 178 173 180 185 180 170 175 168 176 175 174 187 191 194 200 199 198 202 208 223 231 233 234 235 239 242 243 244 246 247 248 250 251 253 255 256 256 257 259 260 261 261 263 263 264 264 265 265 264 265 266
235 237 235 231 224 218 217 220 215 210 208 204 202 202 202 200 197 194 196 195 197 196 199 178 158 188 179 180 185 185 178 174 173 181 185 193 196 195 196 200 198 199 210 224 235 239 240 241 242 244 246 248 249 250 251 252 252 254 255 257 259 260 262 262 264 265 265 264 265 266 266 265 266 266
233 232 235 235 229 226 220 220 214 207 205 201 202 203 200 196 192 194 198 195 195 196 196 187 177 176 187 184 179 185 183 187 178 173 176 197 198 196 201 211 210 207 211 216 222 225 228 234 240 248 250 250 249 249 250 250 253 255 256 258 258 259 259 260 260 260 262 262 263 263 264 264 264 264
243 240 234 232 230 226 222 219 214 202 202 197 201 201 196 195 195 199 197 195 194 197 196 193 183 184 174 184 188 167 175 191 202 198 184 182 187 195 206 212 207 203 200 206 210 227 233 234 236 236 239 241 244 248 251 254 256 257 258 258 259 259 260 260 261 261 261 262 263 264 265 265 265 264
233 234 232 231 230 224 224 220 216 209 202 194 200 200 192 195 196 200 196 192 195 198 196 199 186 182 184 187 180 186 190 198 198 182 181 200 200 192 199 204 208 200 193 194 193 210 206 222 227 231 238 245 251 255 255 255 254 255 255 257 258 258 259 260 261 262 263 264 263 264 265 265 265 265
236 233 233 233 231 230 229 229 223 217 212 207 202 195 190 195 196 197 194 193 194 195 196 197 190 186 196 194 190 193 203 196 174 177 190 198 192 179 193 199 202 183 154 176 199 206 198 200 226 217 226 234 232 229 235 236 239 247 254 256 258 259 260 262 263 263 263 264 265 266 267 267 266 266
232 229 230 232 229 227 227 227 226 219 216 215 213 207 200 198 192 191 195 196 192 193 199 197 193 196 201 201 193 195 189 182 192 191 189 190 187 193 192 200 220 198 162 197 201 217 204 193 217 220 224 226 226 223 227 232 244 252 257 259 260 260 261 262 262 263 264 265 266 267 267 267 266 266
230 230 231 230 227 223 221 221 224 221 218 218 217 212 201 200 200 192 188 190 192 194 196 195 198 197 205 198 191 192 186 187 187 193 189 191 195 196 196 196 188 209 165 192 202 217 207 191 206 224 225 222 219 228 238 250 259 261 262 263 264 265 265 266 267 268 269 272 273 273 272 271 270 269
232 234 232 229 220 217 214 214 212 213 220 225 221 214 202 197 197 199 196 191 189 189 191 196 199 202 201 194 200 194 186 175 178 188 195 197 196 193 189 187 158 185 140 176 211 219 234 202 231 239 240 239 242 247 256 260 264 265 267 267 268 267 268 269 270 271 272 274 275 274 274 273 271 270
226 226 226 224 221 216 210 207 206 208 215 217 218 212 204 201 201 200 199 197 192 184 190 193 202 205 190 201 197 180 171 178 185 187 194 193 180 188 183 156 140 157 75 159 168 254 233 219 232 245 245 241 246 244 243 253 257 263 267 269 269 271 273 274 276 277 278 280 280 279 278 276 275 273
226 222 222 219 219 216 210 204 202 207 209 208 208 205 201 201 202 202 201 199 195 193 195 196 201 192 193 198 181 178 179 186 184 186 185 176 171 124 73 57 70 282 168 151 137 227 211 213 227 238 237 230 235 233 248 258 265 268 270 271 273 275 277 279 279 280 281 284 285 284 281 280 279 277
225 224 217 216 218 217 214 204 203 206 200 196 199 200 200 199 197 201 201 197 192 192 193 195 192 186 185 180 172 171 171 158 126 104 91 86 106 123 134 178 175 226 229 175 198 238 244 229 234 249 230 236 253 250 245 256 261 266 271 275 278 279 280 280 281 281 283 284 284 284 283 282 281 279
225 221 216 216 222 218 215 204 203 204 198 195 197 196 195 194 192 200 198 203 201 196 194 190 189 183 184 184 179 175 165 151 135 120 125 152 147 146 171 199 192 243 218 221 209 222 250 235 226 261 257 249 260 257 254 249 257 269 274 277 278 281 280 280 281 282 284 285 285 285 284 285 285 286
227 224 220 217 216 209 204 205 201 202 195 194 194 193 189 185 190 189 178 185 202 199 198 198 196 192 193 190 187 183 171 156 148 152 169 161 141 174 178 197 210 257 247 234 200 200 234 230 222 269 283 288 238 246 252 257 272 274 277 279 282 284 285 285 285 285 285 285 284 285 287 288 288 286
229 226 217 217 214 208 208 202 201 204 200 189 190 190 183 183 184 179 167 174 177 184 182 188 188 188 189 183 176 175 173 157 151 155 152 148 154 169 184 194 165 268 273 235 173 183 268 174 273 154 340 315 271 263 256 268 319 337 336 307 293 281 279 280 281 283 284 283 284 287 287 286 286 282
221 203 197 213 211 214 208 202 206 204 198 185 188 181 182 181 183 166 170 174 168 164 164 154 112 79 68 92 118 144 156 142 124 127 136 148 154 172 185 189 190 192 222 289 146 176 251 156 257 114 178 251 289 293 2 345 322 305 298 286 274 278 282 283 285 284 282 282 283 285 285 285 283 277
202 174 184 185 203 204 196 195 205 204 202 182 174 177 183 187 169 157 163 167 161 144 123 113 116 114 103 101 101 101 100 103 109 104 115 132 156 167 178 188 202 231 236 250 150 117 217 163 221 59 282 195 255 306 283 279 263 257 259 264 269 273 274 276 277 279 279 282 283 283 284 282 282 278
191 180 168 174 189 194 188 191 198 202 200 177 167 178 175 162 158 156 154 144 124 120 129 128 123 129 127 123 118 115 113 112 122 128 127 137 145 180 192 187 201 216 245 265 228 162 158 277 207 196 230 214 271 204 291 285 267 253 244 247 256 274 281 285 278 275 276 272 273 275 277 281 285 282
179 162 165 164 174 176 183 189 193 202 186 169 161 170 168 165 158 148 139 129 133 134 138 139 139 142 144 137 137 136 135 132 135 137 138 138 152 184 174 250 200 225 209 134 55 87 128 217 181 173 231 211 264 288 253 262 264 233 253 259 272 271 273 274 272 270 270 274 274 282 286 286 286 284
156 150 155 163 172 178 179 187 188 200 169 147 163 168 167 160 146 130 134 134 137 139 139 143 145 148 147 138 143 158 152 147 140 131 130 135 152 173 242 291 297 261 265 271 285 268 178 233 256 220 211 231 237 249 267 243 247 254 273 266 267 277 268 258 264 269 271 274 278 279 280 283 275 278
167 162 159 162 166 170 174 177 184 167 144 155 160 163 155 135 124 135 142 143 140 146 150 150 146 142 148 147 140 122 116 110 105 100 89 99 112 150 163 276 271 272 260 252 239 222 208 216 244 239 205 216 218 242 221 264 289 285 282 301 291 241 272 270 270 271 274 276 279 281 276 280 280 272
142 148 152 155 154 154 156 150 104 111 146 156 159 145 132 133 138 138 139 142 147 148 145 142 146 140 120 114 119 120 123 128 149 143 148 154 198 184 199 326 297 257 245 241 227 221 211 217 227 217 221 229 219 243 248 269 278 269 265 263 274 291 254 251 243 265 285 286 283 282 276 270 274 277
127 138 138 134 130 119 111 115 123 118 126 116 108 112 120 118 132 136 145 150 147 143 140 134 121 120 116 110 116 134 140 145 161 170 160 159 176 166 186 171 274 307 265 224 217 210 207 215 216 193 210 235 226 233 249 240 267 277 269 254 265 276 281 289 289 285 284 284 282 279 279 281 278 270
78 83 92 95 81 88 87 85 72 84 93 107 106 104 107 111 121 139 135 115 112 117 115 108 113 111 132 139 139 134 145 153 157 166 155 162 166 173 155 148 258 246 289 288 231 225 214 213 209 208 213 223 241 256 229 230 250 265 273 271 266 263 272 279 283 278 279 287 291 286 283 279 278 275
91 92 93 97 98 96 104 101 104 99 95 85 97 103 104 106 107 109 121 130 132 131 128 135 140 144 140 139 138 140 143 156 158 158 155 169 146 148 145 190 226 238 246 273 273 254 219 224 217 214 215 226 229 242 259 279 259 248 262 275 275 268 266 267 276 287 295 295 289 291 291 280 265 270
96 91 92 96 104 109 106 109 111 113 111 110 105 102 106 112 115 116 115 122 134 135 137 140 138 147 144 144 152 154 150 147 156 174 167 167 154 159 182 206 229 236 222 244 253 264 263 249 252 246 244 241 241 229 227 242 269 278 264 260 263 273 272 278 278 289 299 296 300 299 293 292 280 256
96 109 106 103 104 104 111 114 118 120 119 119 117 114 113 109 121 121 121 133 132 132 135 140 142 145 149 153 159 157 160 156 161 168 161 147 165 181 193 198 228 238 236 255 272 269 264 293 316 312 293 282 292 266 228 231 254 266 269 253 247 269 289 291 302 304 303 298 297 288 293 292 289 272
89 98 112 114 114 119 115 118 116 120 123 125 127 128 124 123 120 133 138 146 135 137 137 142 148 151 152 156 159 157 157 154 157 166 168 181 186 207 204 212 216 236 231 233 257 266 267 293 309 304 308 316 330 318 312 220 215 242 273 296 297 305 302 308 304 301 299 294 284 283 288 294 296 298
104 103 107 113 120 126 128 131 130 128 132 134 136 139 138 141 139 128 139 131 128 136 142 141 149 150 148 147 146 147 152 156 168 171 181 190 194 190 200 228 231 226 227 251 241 270 262 272 274 278 287 300 295 286 278 273 275 273 294 294 299 299 302 303 303 296 281 275 282 271 278 289 290 292
111 114 112 114 119 119 126 130 130 130 130 132 131 124 116 117 118 126 127 128 137 138 142 143 146 139 145 149 146 154 160 174 160 170 185 182 181 201 202 210 228 243 244 264 272 264 253 249 267 249 237 268 292 293 302 289 308 299 297 299 293 295 300 298 296 295 296 283 277 285 280 280 281 287
113 124 126 129 130 134 136 139 140 138 139 140 140 135 129 121 121 127 132 138 143 141 142 143 149 151 152 156 157 157 162 165 173 185 188 193 189 191 204 192 231 268 322 296 289 277 271 259 249 247 221 242 259 269 281 299 288 287 300 297 293 293 287 275 290 296 295 301 293 283 271 268 275 282
102 106 121 126 132 134 130 132 136 144 147 150 143 141 140 143 146 145 148 149 151 153 142 148 146 140 149 159 157 154 158 172 180 188 190 189 188 180 183 191 198 226 272 276 281 265 252 251 253 241 234 240 253 261 269 269 277 283 276 280 277 279 292 307 297 295 298 292 295 300 298 296 288 289
117 116 125 125 132 140 141 144 142 143 144 143 138 138 140 143 149 159 160 159 159 154 151 148 153 154 165 166 165 161 170 186 192 185 176 173 174 171 187 176 220 208 224 262 255 267 261 240 243 271 280 276 277 303 311 303 293 297 294 281 283 296 297 297 295 297 292 299 299 295 294 297 299 299
116 117 113 118 128 134 133 135 139 137 139 143 143 143 142 148 153 156 155 159 156 153 147 151 156 162 170 175 173 163 167 181 188 192 181 174 189 198 202 195 216 227 211 244 250 255 266 299 297 295 286 300 313 320 287 281 288 296 295 298 294 293 298 299 299 298 297 298 304 299 297 294 289 294
111 119 117 121 123 134 135 136 140 143 144 144 147 146 142 145 155 158 153 160 167 161 162 161 166 168 177 179 181 178 174 185 183 187 182 185 182 192 205 213 215 222 220 249 264 274 288 291 297 304 301 302 270 238 273 281 281 287 296 299 299 302 292 296 301 303 303 300 293 280 274 283 304 302
121 123 127 128 130 135 140 142 145 149 152 154 155 151 154 156 164 168 166 168 171 177 170 166 172 175 178 178 166 173 196 195 180 172 184 188 191 200 208 222 232 246 258 262 278 282 284 291 282 289 308 282 269 268 274 285 286 286 287 294 301 304 301 304 298 304 306 302 296 289 290 291 289 289
137 137 141 141 138 138 143 145 144 149 151 153 154 162 160 160 163 166 172 172 175 174 174 172 173 179 170 166 165 186 203 199 181 188 182 189 196 206 211 218 235 251 257 248 271 287 290 292 291 295 264 269 262 263 275 274 281 293 293 299 299 300 301 310 316 316 315 310 307 311 312 309 308 307